Regional Weather Roundup
Issued by NWS Albany, NY

Home | Current Version | Previous Version | Graphics & Text | Print | Product List | Glossary Off
Versions: 1 2 3 4 5 6 7 8 9 10 11 12 13 14 15 16 17 18 19 20 21 22 23 24 25 26 27 28 29 30 31 32 33 34 35 36 37 38 39 40 41 42 43 44 45 46 47 48 49 50

000
ASUS41 KALY 300610
RWRALY

NEW YORK STATE HOURLY WEATHER ROUNDUP
NATIONAL WEATHER SERVICE ALBANY NY
200 AM EDT WED JUL 30 2014

NOTE: "FAIR" INDICATES FEW OR NO CLOUDS BELOW 12,000 FEET WITH NO
SIGNIFICANT WEATHER AND/OR NO OBSTRUCTIONS TO VISIBILITY.

NYZ032-033-038>043-046>054-057>066-NYZ062>081-300700-
EAST


CITY           SKY/WX    TMP DP  RH WIND       PRES   REMARKS
ALBANY         MOCLDY    62  52  69 W5        29.98R
GLENS FALLS    CLOUDY    59  57  93 CALM      29.97R
POUGHKEEPSIE   CLOUDY    62  59  90 CALM      29.97S
MONTGOMERY     CLOUDY    61  56  83 CALM      29.98S
WHITE PLAINS   CLEAR     59  54  83 NW3       29.97S
ISLIP          MOCLDY    65  53  65 CALM      29.96F
NEW YORK CITY  CLOUDY    69  53  56 W7        29.97F
CENTRAL PARK   MOCLDY    66  51  58 CALM      30.01S
$$

NYZ005>009-017-018-044>046-055-056-300700-
CENTRAL


CITY           SKY/WX    TMP DP  RH WIND       PRES   REMARKS
FULTON         CLEAR     51  49  92 CALM      29.98S
SYRACUSE       PTCLDY    55  52  89 SE3       29.98S
ROME           CLEAR     52  50  93 CALM      30.00F
ELMIRA         CLEAR     50  50 100 CALM      30.01S
BINGHAMTON     CLOUDY    55  50  83 SW3       30.01S
MONTICELLO     CLOUDY    55  52  88 CALM      30.02S
$$

NYZ026>034-041>043-300700-
NORTH


CITY           SKY/WX    TMP DP  RH WIND       PRES   REMARKS
WATERTOWN      CLEAR     56  48  74 S3        29.96S
FORT DRUM      NOT AVBL
MASSENA        PTCLDY    56  53  90 S5        29.95S
SARANAC LAKE   FOG       41  41 100 CALM      29.98S VSB 1/4
PLATTSBURGH    CLEAR     52  51  97 CALM      29.96S
$$

NYZ001>004-010>016-019>021-300700-
WEST


CITY           SKY/WX    TMP DP  RH WIND       PRES   REMARKS
NIAGARA FALLS  MOCLDY    60  57  89 S6        29.95F
BUFFALO        CLOUDY    59  56  89 S7        29.97F
DUNKIRK        CLOUDY    61  50  67 S10G21    29.97F
JAMESTOWN      MOCLDY    54  48  82 S6        30.01S
WELLSVILLE     PTCLDY    52  48  86 CALM      30.04S FOG
ROCHESTER      CLOUDY    59  53  80 SW7       29.98S
PENN YAN       CLEAR     57  55  93 S5        30.00S
$$

             KEY
       WCI = WIND CHILL INDEX
       VSB = VISIBILITY
       HX  = HEAT INDEX
$$


USA.gov is the U.S. government's official web portal to all federal, state and local government web resources and services.